Back to catalog

STARLINK-4360

AliveCommunicationsSSO
NORAD 53482·PAYLOAD·🇺🇸 United States

Launched Aug 12, 2022 from Vandenberg Space Force Base

Loading…

Next Passes (next 24 hours)

TLE

FreshSource: CelesTrak SupGP

Epoch: Sep 14, 2026, 21:02 UTC

1 53482C 22099T   26257.87687500 -.00028627  00000+0 -17404-2 0  2578
2 53482  97.2857  12.0316 0002082  87.6337 354.2736 15.10562481    15

Track STARLINK-4360 in real time with AllMySat

Download on the App Store